軌道要素
Epoch 2023 Feb. 25.0 TT = JDT 2460000.5
T 2021 Jan. 14.78793 TT Rudenko
q 4.2817173 (2000.0) P Q
z +0.0258249 Peri. 91.07344 +0.04344370 -0.99365156
+/-0.0000004 Node 6.94470 -0.81073039 -0.09576259
e 0.8894253 Incl. 120.87692 +0.58380552 -0.05904318
H 13.0
>From 250 observations 2017 Sept. 16-2022 Dec. 23, mean residual 0".4.
|